Flag for Norway Weather past 2 weeks in Vadsø, Norway

Now
48 °F

Passing clouds.


Feels Like: 42 °F
Forecast: 45 / 58 °F
Wind: 15 mph from East

Location: Vadso

Current Time: Aug 27, 2015 at 11:44:12 PM

Latest Report: Aug 27, 2015 at 10:50 PM


Visibility: N/A

Pressure: 30.01 "Hg

Humidity: 82%

Dew point: 43 °F

Location of VadsøLocation

Historic Weather in Vadsø — Graph

°F

Vadsø temperature yesterday

Maximum temperature yesterday: 52 °F (at 12:50 PM)
Minimum temperature yesterday: 43 °F (at 11:50 PM)
Average temperature yesterday: 48 °F

Past Weeks' High & Low Weather Summary

 TemperatureHumidityPressure
High72 °F (Aug 20, 3:50 PM)100% (Aug 12, 10:20 PM)30.39 "Hg (Aug 12, 10:20 PM)
Low43 °F (Aug 17, 4:50 AM)44% (Aug 20, 3:50 PM)29.83 "Hg (Aug 12, 8:50 PM)
Average54 °F81%30.14 "Hg
* Reported Aug 12 8:50 PM — Aug 27 8:50 PM, Vadsø, Weather by CustomWeather, © 2015

Note: Actual official high and low records may vary slightly from our data, if they occured in-between our weather recording intervals... More about our weather records

Advertising

Vadsø weather history for previous 24 hours

 ConditionsComfort  
Time TempWeatherWind HumidityBarometerVisibility
8:50 PM
Thu, Aug 27
48 °FPassing clouds.14 mph76%30.01 "HgN/A
7:50 PM48 °FPassing clouds.15 mph76%30.01 "HgN/A
6:50 PM50 °FScattered clouds.14 mph67%30.01 "HgN/A
5:50 PM50 °FPartly sunny.14 mph71%30.01 "HgN/A
4:50 PM50 °FPartly sunny.14 mph67%30.01 "HgN/A
3:50 PM50 °FPartly sunny.12 mph62%30.01 "HgN/A
2:50 PM50 °FPartly sunny.10 mph67%30.01 "HgN/A
12:50 PM50 °FScattered showers. Broken clouds.12 mph71%30.01 "HgN/A
11:50 AM48 °FScattered showers. Broken clouds.12 mph76%30.01 "HgN/A
11:20 AM48 °FScattered showers. Broken clouds.12 mph76%30.01 "HgN/A
9:50 AM48 °FPartly sunny.7 mph71%30.01 "HgN/A
8:50 AM48 °FPartly sunny.12 mph76%30.01 "HgN/A
7:50 AM46 °FPartly sunny.9 mph76%30.01 "HgN/A
7:20 AM46 °FPartly sunny.7 mph76%30.01 "HgN/A
4:50 AM45 °FPartly sunny.8 mph81%30.01 "HgN/A
12:50 AM43 °FPassing clouds.7 mph87%30.01 "HgN/A
11:50 PM
Wed, Aug 26
43 °FPassing clouds.7 mph87%30.01 "HgN/A
Weather by CustomWeather, © 2015

See weather overviewHow to use our weather pages